Ana Sayfa
METAR-TAF:

METAR-TAF

Havaalanları :

Fairfield County Airport

Lancaster, Ohio, Amerika Birleşik Devletleri

Enlem: 39-45-26N, Boylam: 082-39-48W, yükseklik: 264 m

Güncel hava durumu gözlemi

Rapor saat 21:53 UTC de 1 saat ve 1 dakika önce yapıldı.
Rüzgar kuzey/kuzeybatıdan 7 kt
Sıcaklık 25°C
Nem 79%
Basınç 1018 hPa
Görüş mesafesi: 16.1 km
3100 ft yükseklikte az bulutlu
8000 ft yükseklikte parçalı çok bulutlu

METAR: KLHQ 112153Z AUTO 34007KT 10SM FEW031 BKN080 25/21 A3005 RMK AO2 RAB25E42 SLP169 P0001 T02500206

Saat: 18:54 (22:54 UTC)


TAF: eksik

4.000'den fazla havaalanı için hava durumu gözlemleri ve tahminleri (METAR ve TAF raporları).

Kullanılabilir istasyonlar harita üzerinde sarı ve kırmızı noktalarla gösterilir.

İstasyonun adını görmek için fareyi noktanın üzerinde gezdirin.

Sonrasında hava gözlem ve tahminlerini görmek için tıklayın.

Haritayı değiştirmek için: yaklaştırmak için siyah artı işaretli yeşil düğmeye ve uzaklaştırmak için de eksi işaretli düğmeye hızla tıklayın; bitişik haritalar için yeşil okları kullanın.


METAR-TAF: